Quelimane Airport

Airport
ICAO code: 
FQQL
IATA Code: 
UEL
Summary
ICAO Region: 
AFI
Territory: 
Location: 
Quelimane, Zambezia Province
Serving: 
Quelimane
Elevation: 
36 ft
Coordinates: 
Aerial View: 
17° 51' 19.537" S, 36° 52' 6.917" E
Metar
Observation
FQQL 241500Z 14009G35KT 8000 -DZ SCT009 BKN015 FEW025CB BKN090 27/25 Q0999 RMK CB TO N
Station
Quelimane
Date/Time
2022-01-24 15:00:00
Wind direction
140°
Wind speed
09 kts
Lowest cloud amount
scattered clouds
Temperature
27°C
Dew point
25°C
Humidity
88%
QNH
999 hPa
Weather condition
n/a

Description

Airport 2 km north west of Quelimane Mozambique.

Climatology

Tropical Savanna climate (Köppen climate classification Aw) - monthly mean temperature above 18°C in every month of the year and a pronounced dry season.

Runways

Designator Length Width Surface Rops
9/27 908 30 GVL No/No
18/36 1800 45 ASP No/No
Airport map: 
Aerial View: 

SKYbrary Partners:

Safety knowledge contributed by: